Regional Weather Roundup
Issued by NWS Cleveland, OH

Home | Current Version | Previous Version | Graphics & Text | Print | Product List | Glossary On
Versions: 1 2 3 4 5 6 7 8 9 10 11 12 13 14 15 16 17 18 19 20 21 22 23 24 25 26 27 28 29 30 31 32 33 34 35 36 37 38 39 40 41 42 43 44 45 46 47 48 49 50
000
ASUS41 KCLE 010210
RWRCLE
OHIO REGIONAL WEATHER ROUNDUP
NATIONAL WEATHER SERVICE CLEVELAND, OH
900 PM EST SAT JAN 31 2015

NOTE: "FAIR" INDICATES FEW OR NO CLOUDS BELOW 12,000 FEET WITH NO
SIGNIFICANT WEATHER AND/OR OBSTRUCTIONS TO VISIBILITY.

OHZ001>008-015>018-024>027-034-035-043-044-010300-
   NORTHWEST OHIO

CITY           SKY/WX    TMP DP  RH WIND       PRES   REMARKS
DEFIANCE       CLOUDY    35  27  72 SW6       30.20S
FINDLAY        CLOUDY    34  26  72 S9        30.19F WCI  27
TOLEDO EXPRESS MOCLDY    29  24  82 CALM      30.19F
TOLEDO EXEC    MOCLDY    30  23  75 S8        30.21S WCI  22
LIMA           CLOUDY    34  25  69 S9        30.19F WCI  27
$$

OHZ009>014-019>023-028>033-038-089-010300-
   NORTHEAST OHIO

CITY           SKY/WX    TMP DP  RH WIND       PRES   REMARKS
CLE-HOPKINS    CLOUDY    30  20  66 SW9       30.23S WCI  22
CLE-LAKEFRONT  CLOUDY    32  20  61 S10       30.20F WCI  24
CUY CO. ARPT   CLOUDY    30  21  69 SW9       30.20F WCI  22
LORAIN-ELYRIA  CLOUDY    30  20  66 SW10      30.21S WCI  21
ASHTABULA      CLOUDY    26  16  65 SW7       30.20F WCI  18
AKRON-CANTON   PTCLDY    26  16  65 S8        30.20F WCI  18
WOOSTER        MOCLDY    26  18  71 SW10      30.21F WCI  16
MANSFIELD      MOCLDY    27  19  72 S10       30.19F WCI  17
YOUNGSTOWN     CLOUDY    25  16  68 S7        30.19F WCI  17
$$

OHZ042-051>053-060>062-070>072-077>081-010300-
  SOUTHWEST OHIO

CITY           SKY/WX    TMP DP  RH WIND       PRES   REMARKS
CINC-COVINGTON LGT RAIN  36  25  64 SW5       30.26S
CINC-LUNKEN    LGT RAIN  34  26  72 SW5       30.29F WCI  30
HAMILTON       CLOUDY    37  22  54 CALM      30.27F
DAYTON         CLOUDY    35  23  61 S10       30.23F WCI  27
WRIGHT-PAT AFB CLOUDY    35  24  64 S7        30.24F WCI  29
DAYTON GENERAL CLOUDY    35  22  58 S7        30.24S WCI  29
WILMINGTON     CLOUDY    33  22  63 SW8       30.24F WCI  26
$$

OHZ036-037-039>041-045>050-054>059-063>069-073>076-082>088-010300-
  CENTRAL AND SOUTHEAST OHIO

CITY           SKY/WX    TMP DP  RH WIND       PRES   REMARKS
COLUMBUS       CLOUDY    33  21  61 S5        30.25F WCI  29
OSU AIRPORT    CLOUDY    33  23  66 S6        30.24S WCI  28
BOLTON FIELD   CLOUDY    33  25  73 MISG      30.25S
RICKENBACK AFB CLOUDY    33  23  68 S5        30.25S WCI  28
NEWARK         CLOUDY    33  21  61 SW6       30.24F WCI  28
MARION         CLOUDY    32  23  69 S9        30.22F WCI  24
LANCASTER      CLOUDY    33  23  66 CALM      30.25F
ZANESVILLE     MOCLDY    26  17  68 S5        30.25F WCI  20
NEW PHILLY     PTCLDY    26  16  65 SE6       30.25F WCI  19
$$



USA.gov is the U.S. government's official web portal to all federal, state and local government web resources and services.